| time (UTC) | temp F | wind direction | speed MPH | gust MPH | rain 1hr in | rain 24hr in | rain mn in | humidity % | barometer mb |
| 20260507135704 | 52 | 209 | 6.0 | 12.0 | 0.00 | 0.05 | 0.05 | 88 | 1010.2 |
| 20260507135204 | 52 | 216 | 7.0 | 12.0 | 0.02 | 0.05 | 0.05 | 88 | 1010.2 |
| 20260507134704 | 52 | 217 | 7.0 | 18.0 | 0.02 | 0.05 | 0.05 | 89 | 1010.2 |
| 20260507134203 | 52 | 207 | 5.0 | 9.0 | 0.02 | 0.05 | 0.05 | 89 | 1010.2 |
| 20260507133704 | 52 | 210 | 7.0 | 12.0 | 0.02 | 0.05 | 0.05 | 89 | 1010.2 |
| 20260507133204 | 52 | 215 | 5.0 | 12.0 | 0.02 | 0.05 | 0.05 | 89 | 1010.2 |
| 20260507132703 | 52 | 202 | 8.0 | 13.0 | 0.02 | 0.05 | 0.05 | 89 | 1010.3 |
| 20260507132204 | 52 | 191 | 7.0 | 12.0 | 0.02 | 0.05 | 0.05 | 89 | 1010.2 |
| 20260507131704 | 52 | 211 | 6.0 | 12.0 | 0.02 | 0.05 | 0.05 | 89 | 1010.3 |
| 20260507131204 | 51 | 211 | 5.0 | 9.0 | 0.02 | 0.05 | 0.05 | 89 | 1010.4 |
| 20260507130704 | 51 | 192 | 6.0 | 10.0 | 0.02 | 0.05 | 0.05 | 89 | 1010.3 |
| 20260507130203 | 50 | 209 | 6.0 | 12.0 | 0.02 | 0.05 | 0.05 | 87 | 1010.3 |
| 20260507125704 | 50 | 205 | 9.0 | 15.0 | 0.02 | 0.05 | 0.05 | 87 | 1010.5 |
| 20260507125203 | 51 | 203 | 10.0 | 17.0 | 0.01 | 0.03 | 0.03 | 86 | 1010.4 |
| 20260507124704 | 51 | 203 | 7.0 | 12.0 | 0.01 | 0.03 | 0.03 | 87 | 1010.4 |
| 20260507124204 | 52 | 197 | 7.0 | 14.0 | 0.01 | 0.03 | 0.03 | 87 | 1010.3 |
| 20260507123704 | 52 | 194 | 7.0 | 13.0 | 0.01 | 0.03 | 0.03 | 86 | 1010.3 |
| 20260507123204 | 52 | 194 | 6.0 | 12.0 | 0.01 | 0.03 | 0.03 | 86 | 1010.3 |
| 20260507122705 | 53 | 215 | 6.0 | 9.0 | 0.01 | 0.03 | 0.03 | 88 | 1010.3 |
| 20260507122204 | 52 | 199 | 6.0 | 12.0 | 0.01 | 0.03 | 0.03 | 88 | 1010.3 |
| 20260507121704 | 51 | 211 | 7.0 | 13.0 | 0.02 | 0.03 | 0.03 | 87 | 1010.3 |
| 20260507121204 | 51 | 217 | 5.0 | 10.0 | 0.03 | 0.03 | 0.03 | 88 | 1010.4 |
| 20260507120203 | 50 | 212 | 6.0 | 10.0 | 0.03 | 0.03 | 0.03 | 88 | 1010.5 |
| 20260507115703 | 50 | 230 | 5.0 | 10.0 | 0.02 | 0.02 | 0.02 | 87 | 1010.6 |
| 20260507115204 | 51 | 207 | 7.0 | 12.0 | 0.02 | 0.02 | 0.02 | 87 | 1010.5 |
| 20260507114204 | 51 | 203 | 6.0 | 9.0 | 0.02 | 0.02 | 0.02 | 86 | 1010.6 |
| 20260507113704 | 51 | 212 | 7.0 | 13.0 | 0.02 | 0.02 | 0.02 | 86 | 1010.6 |
| 20260507113204 | 51 | 200 | 6.0 | 10.0 | 0.02 | 0.02 | 0.02 | 86 | 1010.6 |
| 20260507112703 | 51 | 220 | 4.0 | 6.0 | 0.02 | 0.02 | 0.02 | 85 | 1010.5 |
| 20260507112204 | 50 | 216 | 5.0 | 10.0 | 0.02 | 0.02 | 0.02 | 83 | 1010.6 |
| 20260507111704 | 51 | 220 | 5.0 | 7.0 | 0.01 | 0.01 | 0.01 | 82 | 1010.6 |
| 20260507110204 | 51 | 261 | 6.0 | 12.0 | 0.00 | 0.00 | 0.00 | 81 | 1010.4 |
| 20260507105704 | 51 | 234 | 5.0 | 12.0 | 0.00 | 0.00 | 0.00 | 81 | 1010.4 |
| 20260507105204 | 51 | 236 | 7.0 | 12.0 | 0.00 | 0.00 | 0.00 | 81 | 1010.4 |
| 20260507104703 | 51 | 221 | 7.0 | 15.0 | 0.00 | 0.00 | 0.00 | 80 | 1010.4 |
| 20260507104204 | 52 | 240 | 7.0 | 12.0 | 0.00 | 0.00 | 0.00 | 78 | 1010.3 |
| 20260507103703 | 52 | 229 | 7.0 | 13.0 | 0.00 | 0.00 | 0.00 | 78 | 1010.4 |
| 20260507103204 | 52 | 236 | 10.0 | 17.0 | 0.00 | 0.00 | 0.00 | 76 | 1010.3 |
| 20260507102703 | 52 | 231 | 7.0 | 15.0 | 0.00 | 0.00 | 0.00 | 76 | 1010.2 |
| 20260507102204 | 53 | 193 | 10.0 | 15.0 | 0.00 | 0.00 | 0.00 | 75 | 1010.1 |
| 20260507101703 | 54 | 208 | 9.0 | 16.0 | 0.00 | 0.00 | 0.00 | 76 | 1010.0 |
| 20260507101203 | 54 | 176 | 12.0 | 17.0 | 0.00 | 0.00 | 0.00 | 75 | 1010.0 |
| 20260507100204 | 53 | 202 | 9.0 | 17.0 | 0.00 | 0.00 | 0.00 | 77 | 1010.2 |
| 20260507095703 | 53 | 212 | 7.0 | 14.0 | 0.00 | 0.00 | 0.00 | 78 | 1010.2 |
| 20260507095204 | 53 | 201 | 6.0 | 15.0 | 0.00 | 0.00 | 0.00 | 78 | 1010.2 |
| 20260507094704 | 53 | 204 | 9.0 | 13.0 | 0.00 | 0.00 | 0.00 | 78 | 1010.2 |
| 20260507094204 | 53 | 197 | 9.0 | 12.0 | 0.00 | 0.00 | 0.00 | 78 | 1010.2 |
| 20260507093204 | 52 | 222 | 9.0 | 16.0 | 0.00 | 0.00 | 0.00 | 79 | 1010.3 |
| 20260507092703 | 52 | 210 | 9.0 | 13.0 | 0.00 | 0.00 | 0.00 | 80 | 1010.3 |
| 20260507092203 | 51 | 228 | 6.0 | 13.0 | 0.00 | 0.00 | 0.00 | 80 | 1010.3 |
| 20260507091704 | 51 | 212 | 9.0 | 14.0 | 0.00 | 0.00 | 0.00 | 80 | 1010.4 |
| 20260507091204 | 51 | 202 | 10.0 | 16.0 | 0.00 | 0.00 | 0.00 | 80 | 1010.4 |
| 20260507090704 | 51 | 206 | 9.0 | 17.0 | 0.00 | 0.00 | 0.00 | 81 | 1010.2 |
| 20260507090203 | 50 | 201 | 8.0 | 17.0 | 0.00 | 0.00 | 0.00 | 81 | 1010.3 |
| 20260507085704 | 50 | 219 | 9.0 | 14.0 | 0.00 | 0.00 | 0.00 | 81 | 1010.2 |
| 20260507085203 | 50 | 205 | 10.0 | 16.0 | 0.00 | 0.00 | 0.00 | 81 | 1010.3 |
| 20260507084704 | 50 | 190 | 9.0 | 16.0 | 0.00 | 0.00 | 0.00 | 81 | 1010.3 |
| 20260507084204 | 50 | 207 | 10.0 | 16.0 | 0.00 | 0.00 | 0.00 | 81 | 1010.3 |
| 20260507083705 | 50 | 209 | 9.0 | 15.0 | 0.00 | 0.00 | 0.00 | 81 | 1010.3 |
| 20260507083203 | 50 | 216 | 6.0 | 14.0 | 0.00 | 0.00 | 0.00 | 82 | 1010.3 |
| 20260507082703 | 49 | 195 | 7.0 | 12.0 | 0.00 | 0.00 | 0.00 | 82 | 1010.4 |
| 20260507082203 | 49 | 206 | 7.0 | 12.0 | 0.00 | 0.00 | 0.00 | 82 | 1010.3 |
| 20260507081203 | 49 | 211 | 12.0 | 18.0 | 0.00 | 0.00 | 0.00 | 82 | 1010.5 |